Tracking 29892 objects as of 21-Nov-2024
HD Live streaming from Space Station
objects crossing your sky now

PEARL-1H

Track PEARL-1H now!
10-day predictions
PEARL-1H is classified as:


NORAD ID: 58265
Int'l Code: 2023-174K
Perigee: 483.0 km
Apogee: 495.5 km
Inclination: 97.4 °
Period: 94.2 minutes
Semi major axis: 6860 km
RCS: Unknown
Launch date: November 11, 2023
Source: (TBD)
Launch site: AIR FORCE WESTERN TEST RANGE (AFWTR)

Uplink (MHz):
Downlink (MHz): 435.390
Beacon (MHz):
Mode: 9600bps GMSK
Call sign: PEARLH
Status: Active

Your satellite tracking list
Your tracking list is empty




NASA's NSSDC Master Catalog

Two Line Element Set (TLE):
1 58265U 23174K   24326.16604322  .00032417  00000-0  11880-2 0  9991
2 58265  97.4322  38.5979 0009173  61.0374 299.1784 15.27895022 57561
Source of the keplerian elements: AFSPC